Starlink 3820

operational
NORAD ID: 52364 Int'l Des: 2022-045 Owner: SPXS Country: US Constellation: starlink
LEOCIRCULAR

Über Starlink 3820

Beschreibung wird geladen...

Live-Position

3D-Globus wird geladen...

Nächste Überflüge

Höhenverlauf

Altitude vs Time

uPlot chart will show altitude changes over time

Zweizeiliger Elementsatz

1 52364U 22045AK 25259.69188719 .00000883 00000-0 73555-4 0 9993
2 52364 53.2138 250.1423 0001198 103.8128 256.2998 15.08840087189654
Epoch: 16. Sept. 2025 • Age: 57 hours

Aktueller Status

Höhe 554.6 km
Geschwindigkeit 7.58 km/s
Subsatellitenpunkt -42.89°S, 85.57°E
Startdatum 29. Apr. 2022
Alter 3.3 years
Typ internet

Technische Details

Klassifizierung Payload
Masse 297.00 kg
Trockenmasse 275.00 kg
Gesamtmasse 297.00 kg
Länge 0.20 m
Durchmesser 2.80 m
Spannweite 9.00 m
Form Box + pan
Hersteller SPXS
Bus-Typ Starlink
Phasenstatus In Orbit
Besitzer/Staat SPXS/US

Große Konstellationen

Loading constellations...